Skip Page Navigation
NASA JPL Caltech
NASA Logo - Jet Propulsion Laboratory + View the NASA Portal
+ Center for Near-Earth Object Studies
JPL Home Earth Solar System Stars & Galaxies Technology
JPL Solar System Dynamics
BODIES ORBITS EPHEMERIDES TOOLS PHYSICAL DATA DISCOVERY FAQ SITE MAP

Significant website upgrade scheduled for September 27. More details available here.

JPL Small-Body Database Browser
Search: [ help ]  
19839 (2000 SW275)
Classification: Main-belt Asteroid          SPK-ID: 2019839
Ephemeris | Orbit Diagram | Orbital Elements | Mission Design | Physical Parameters | Discovery Circumstances ]

[ show orbit diagram ]
Orbital Elements at Epoch 2459396.5 (2021-Jul-01.0) TDB
Reference: JPL 31 (heliocentric ecliptic J2000)
 Element Value Uncertainty (1-sigma)   Units 
e .2162989422426791 3.537e-08  
a 2.188711740742135 5.6734e-09 au
q 1.715295706345478 7.8164e-08 au
i 4.944520906963007 3.9553e-06 deg
node 164.048177866194 3.7922e-05 deg
peri 150.8074214237974 3.8625e-05 deg
M 204.8517409789986 7.4778e-06 deg
tp 2459906.212969264104
(2022-Nov-22.71296926)
2.4908e-05 TDB
period 1182.71819544065
3.24
4.5986e-06
1.259e-08
d
yr
n .3043835813026225 1.1835e-09 deg/d
Q 2.662127775138791 6.9005e-09 au
  Orbit Determination Parameters
   # obs. used (total)      1393  
   data-arc span      11118 days (30.44 yr)  
   first obs. used      1990-09-12  
   last obs. used      2021-02-19  
   planetary ephem.      DE441  
   SB-pert. ephem.      SB441-N16  
   condition code      0  
   norm. resid. RMS      .52057  
   source      ORB  
   producer      Otto Matic  
   solution date      2021-Jul-08 18:17:00  

Additional Information
 Earth MOID = .703204 au 
 Jupiter MOID = 2.63746 au 
 T_jup = 3.639 
[ show covariance matrix ]

Ephemeris | Orbit Diagram | Orbital Elements | Mission Design | Physical Parameters | Discovery Circumstances ]

Physical Parameter Table
Parameter Symbol Value Units Sigma Reference Notes
absolute magnitude H 15.55   n/a MPCxxxxx  

19839 (2000 SW275)          Discovered 2000-Sep-28 by LINEAR at Socorro
Reference: 20001211/Numbers.arcLast Updated: 2004-04-19

Alternate Designations
 2000 SW275 = 1990 RU 
Ephemeris | Orbit Diagram | Orbital Elements | Mission Design | Physical Parameters | Discovery Circumstances ]
ABOUT SSD CREDITS/AWARDS PRIVACY/COPYRIGHT GLOSSARY LINKS
FirstGov 2021-Sep-20 15:21 UT
(server date/time)  
NASA Home Page
Site Manager:   Ryan S. Park
Webmaster  Alan B. Chamberlin